This is the latest recevied weather packets stored in our database for station/object IR3AS. If no packets are shown the sender has not sent any weather packets the latest 10 day(s).
| Time | Temp. | Humidity | Pressure | Rain* | Wind** | Luminosity | Snow |
|---|---|---|---|---|---|---|---|
| 1787493010 | 20.56° C | 58% | 868.4 hPa | 0 mm | - | - | - |
| 1787492710 | 20.56° C | 56% | 868.3 hPa | 0 mm | - | - | - |
| 1787492410 | 21.11° C | 59% | 869.4 hPa | 0 mm | - | - | - |
| 1787492110 | 20.56° C | 61% | 869.1 hPa | 0 mm | - | - | - |
| 1787491810 | 20° C | 62% | 868.4 hPa | 0 mm | - | - | - |
| 1787491510 | 18.89° C | 63% | 868.4 hPa | 0 mm | - | - | - |
| 1787491210 | 18.89° C | 63% | 868.9 hPa | 0 mm | - | - | - |
| 1787490910 | 18.89° C | 64% | 868.8 hPa | 0 mm | - | - | - |
| 1787490611 | 18.33° C | 66% | 868.6 hPa | 0 mm | - | - | - |
| 1787490311 | 17.22° C | 68% | 869 hPa | 0 mm | - | - | - |
| 1787490061 | 16.67° C | 68% | 868.8 hPa | 0 mm | - | - | - |
| 1787490011 | 16.67° C | 68% | 868.8 hPa | 0 mm | - | - | - |
| 1787489711 | 16.11° C | 69% | 869 hPa | 0 mm | - | - | - |
| 1787489410 | 15.56° C | 69% | 869 hPa | 0 mm | - | - | - |
| 1787489110 | 15.56° C | 67% | 869.1 hPa | 0 mm | - | - | - |
| 1787488810 | 16.11° C | 67% | 869.1 hPa | 0 mm | - | - | - |
| 1787488510 | 16.11° C | 68% | 869.4 hPa | 0 mm | - | - | - |
| 1787488210 | 15.56° C | 70% | 868.9 hPa | 0 mm | - | - | - |
| 1787487910 | 15° C | 69% | 869.2 hPa | 0 mm | - | - | - |
| 1787487610 | 15° C | 68% | 868.7 hPa | 0 mm | - | - | - |
| 1787487310 | 15.56° C | 69% | 868.7 hPa | 0 mm | - | - | - |
| 1787487010 | 16.11° C | 70% | 869 hPa | 0 mm | - | - | - |
| 1787486710 | 16.11° C | 70% | 869 hPa | 0 mm | - | - | - |
| 1787486410 | 15.56° C | 70% | 868.8 hPa | 0 mm | - | - | - |
| 1787486110 | 16.11° C | 69% | 868.7 hPa | 0 mm | - | - | - |
* Rain latest hour (hover to see other rain measurements)
** Current wind speed in m/s (hover to see current wind gust speed)